Weather History for KGLD - September, 2013

Change the Weather History Date:

Thursday, September 5, 2013

  Actual Average Record
Temperature  
Mean Temperature 80 °F 69 °F  
Max Temperature 99 °F 84 °F 104 °F (1931)
Min Temperature 61 °F 55 °F 40 °F (1961)
Degree Days  
Heating Degree Days 0 1  
Month to date heating degree days 0 5  
Since 1 July heating degree days 7 17  
Cooling Degree Days 15 6  
Month to date cooling degree days 61 30  
Year to date cooling degree days 1059 863  
Growing Degree Days 31 (Base 50)    
Moisture  
Dew Point 50 °F    
Average Humidity 44    
Maximum Humidity 72    
Minimum Humidity 16    
Precipitation  
Precipitation 0.00 in 0.04 in 2.30 in (1926)
Month to date precipitation 0.00 0.24  
Year to date precipitation 8.79 16.14  
Snow  
Snow 0.00 in 0.00 in - ()
Month to date snowfall 0.0 0.0  
Since 1 July snowfall 0.0 0.0  
Since 1 September snowfall 0.0 0.0  
Snow Depth 0.00 in    
Sea Level Pressure  
Sea Level Pressure 30.00 in    
Wind  
Wind Speed 12 mph (SSE)    
Max Wind Speed 23 mph    
Max Gust Speed 30 mph    
Visibility 10 miles    
Events      
T = Trace of Precipitation, MM = Missing Value Source: NWS Daily Summary

Daily Weather History Graph

Daily Weather History Graph

Search for Another Location

Airport or City:

Trip Planner

Search our weather history database for the weather conditions in past years. The results will help you decide how hot, cold, wet, or windy it might be!

Date:

Astronomy

Sep. 05, 2013 Rise Set
Actual Time 6:19 AM MDT 7:10 PM MDT
Civil Twilight 5:51 AM MDT 7:38 PM MDT
Nautical Twilight 5:19 AM MDT 8:10 PM MDT
Astronomical Twilight 4:45 AM MDT 8:43 PM MDT
Moon 6:32 AM MDT (9/5) 7:04 PM MDT (9/5)
Length of Visible Light 13h 46m
Length of Day
12h 51m
New Moon, 0% of the Moon is Illuminated
Sep 5
New Moon
Sep 12
First Quarter
Sep 19
Full
Sep 26
Last Quarter
Oct 4
New

Hourly Weather History & Observations

Time (MDT) Temp. Heat Index Dew Point Humidity Pressure Visibility Wind Dir Wind Speed Gust Speed Precip Events Conditions
12:53 AM 73.0 °F - 55.9 °F 55% 30.02 in 10.0 mi South 13.8 mph - N/A   Clear
1:53 AM 71.1 °F - 55.0 °F 57% 30.01 in 10.0 mi South 13.8 mph - N/A   Clear
2:53 AM 70.0 °F - 54.0 °F 57% 29.99 in 10.0 mi South 15.0 mph - N/A   Clear
3:53 AM 66.0 °F - 54.0 °F 65% 30.01 in 10.0 mi NE 6.9 mph - N/A   Clear
4:53 AM 63.0 °F - 53.1 °F 70% 30.02 in 10.0 mi NE 3.5 mph - N/A   Clear
5:53 AM 63.0 °F - 54.0 °F 72% 30.01 in 10.0 mi South 5.8 mph - N/A   Clear
6:53 AM 64.9 °F - 54.0 °F 68% 30.04 in 10.0 mi South 5.8 mph - N/A   Clear
7:53 AM 70.0 °F - 54.0 °F 57% 30.05 in 10.0 mi South 8.1 mph - N/A   Clear
8:53 AM 75.9 °F - 54.0 °F 46% 30.04 in 10.0 mi South 10.4 mph - N/A   Clear
9:53 AM 81.0 °F 80.5 °F 54.0 °F 39% 30.04 in 10.0 mi South 10.4 mph - N/A   Clear
10:53 AM 86.0 °F - 52.0 °F 31% 30.03 in 10.0 mi South 8.1 mph - N/A   Clear
11:53 AM 93.0 °F - 50.0 °F 23% 30.01 in 10.0 mi South 12.7 mph - N/A   Clear
12:53 PM 96.1 °F - 50.0 °F 21% 30.00 in 10.0 mi SSE 18.4 mph - N/A   Clear
1:53 PM 97.0 °F - 48.0 °F 19% 29.99 in 10.0 mi SSE 17.3 mph - N/A   Clear
2:53 PM 99.0 °F - 45.0 °F 16% 29.96 in 10.0 mi SSE 13.8 mph 26.5 mph N/A   Clear
3:53 PM 98.1 °F - 45.0 °F 16% 29.96 in 10.0 mi South 17.3 mph 29.9 mph N/A   Clear
4:53 PM 96.1 °F - 46.0 °F 18% 29.97 in 10.0 mi SSE 20.7 mph 26.5 mph N/A   Clear
5:53 PM 93.9 °F - 46.0 °F 19% 29.96 in 10.0 mi SSE 17.3 mph - N/A   Clear
6:53 PM 88.0 °F - 46.9 °F 24% 29.97 in 10.0 mi SSE 12.7 mph - N/A   Clear
7:53 PM 81.0 °F - 46.9 °F 30% 29.99 in 10.0 mi SSE 11.5 mph - N/A   Clear
8:53 PM 79.0 °F - 48.0 °F 34% 29.99 in 10.0 mi SSE 15.0 mph - N/A   Clear
9:53 PM 75.9 °F - 48.9 °F 38% 29.99 in 10.0 mi South 13.8 mph - N/A   Clear
10:53 PM 72.0 °F - 48.9 °F 44% 29.99 in 10.0 mi South 10.4 mph - N/A   Clear
11:53 PM 72.0 °F - 46.9 °F 41% 29.98 in 10.0 mi South 13.8 mph - N/A   Clear